Date,TemperatureHighF,TemperatureAvgF,TemperatureLowF,DewpointHighF,DewpointAvgF,DewpointLowF,HumidityHigh,HumidityAvg,HumidityLow,PressureMaxIn,PressureMinIn,WindSpeedMaxMPH,WindSpeedAvgMPH,GustSpeedMaxMPH,PrecipitationSumIn
2013-1-1,33.0,31.3,30.0,-99.9,-99.9,-99.9,0,0,100,0.00,40.00,7,3,8,0.00
2013-1-2,31.0,30.2,29.0,-99.9,-99.9,-99.9,0,0,100,0.00,40.00,13,9,16,0.00
2013-1-3,32.0,28.6,25.0,-99.9,-99.9,-99.9,0,0,100,0.00,40.00,6,3,8,0.00
2013-1-4,33.0,28.6,25.0,-99.9,-99.9,-99.9,0,0,100,0.00,40.00,12,5,15,0.00
2013-1-5,33.0,30.9,30.0,-99.9,-99.9,-99.9,0,0,100,0.00,40.00,9,6,13,0.00
2013-1-6,32.0,30.3,29.0,-99.9,-99.9,-99.9,0,0,100,0.00,40.00,9,5,13,0.00
2013-1-7,50.0,37.5,30.0,-99.9,-99.9,-99.9,0,0,100,0.00,40.00,20,7,37,0.00
2013-1-8,53.0,46.8,40.0,-99.9,-99.9,-99.9,0,0,100,0.00,40.00,20,8,32,0.00
2013-1-9,55.0,48.6,41.0,-99.9,-99.9,-99.9,0,0,100,0.00,40.00,21,9,33,0.00
2013-1-10,43.0,37.3,33.0,-99.9,-99.9,-99.9,0,0,100,0.00,40.00,12,5,17,0.00
2013-1-11,39.0,32.3,27.0,-99.9,-99.9,-99.9,0,0,100,0.00,40.00,17,9,24,0.00
2013-1-12,32.0,25.1,18.0,-99.9,-99.9,-99.9,0,0,100,0.00,40.00,8,4,12,0.00
2013-1-13,34.0,24.3,19.0,-99.9,-99.9,-99.9,0,0,100,0.00,40.00,5,3,8,0.00
2013-1-14,35.0,28.4,24.0,-99.9,-99.9,-99.9,0,0,100,0.00,40.00,9,4,14,0.00
2013-1-15,36.0,27.3,21.0,-99.9,-99.9,-99.9,0,0,100,0.00,40.00,5,3,7,0.00
2013-1-16,31.0,26.8,20.0,-99.9,-99.9,-99.9,0,0,100,0.00,40.00,3,2,6,0.00
2013-1-17,31.0,30.2,30.0,-99.9,-99.9,-99.9,0,0,100,0.00,40.00,5,3,8,0.00
2013-1-18,31.0,29.4,28.0,-99.9,-99.9,-99.9,0,0,100,0.00,40.00,8,4,12,0.00
2013-1-19,30.0,29.4,28.0,-99.9,-99.9,-99.9,0,0,100,0.00,40.00,8,3,12,0.00
2013-1-20,31.0,29.7,29.0,-99.9,-99.9,-99.9,0,0,100,0.00,40.00,5,3,7,0.00
2013-1-21,29.0,27.5,26.0,-99.9,-99.9,-99.9,0,0,100,0.00,40.00,6,4,10,0.00
2013-1-22,26.0,25.6,25.0,-99.9,-99.9,-99.9,0,0,100,0.00,40.00,8,6,12,0.00
2013-1-23,30.0,27.4,26.0,-99.9,-99.9,-99.9,0,0,100,0.00,40.00,9,5,13,0.00
2013-1-24,34.0,29.3,23.0,-99.9,-99.9,-99.9,0,0,100,0.00,40.00,12,6,18,0.00
2013-1-25,34.0,31.9,29.0,-99.9,-99.9,-99.9,0,0,100,0.00,40.00,5,3,10,0.00
2013-1-26,36.0,33.8,32.0,-99.9,-99.9,-99.9,0,0,100,0.00,40.00,6,3,9,0.00
2013-1-27,43.0,37.0,33.0,-99.9,-99.9,-99.9,0,0,100,0.00,40.00,13,4,24,0.00
2013-1-28,44.0,37.6,28.0,-99.9,-99.9,-99.9,0,0,100,0.00,40.00,14,6,24,0.00
2013-1-29,46.0,43.2,42.0,-99.9,-99.9,-99.9,0,0,100,0.00,40.00,12,6,16,0.00
2013-1-31,56.0,50.9,44.0,-99.9,-99.9,-99.9,0,0,100,0.00,40.00,9,6,14,0.00